User: anonymous   Login
Location: NJAA Observatory
(40.6819°N, 74.8979°W)
Time: 22:04:04
(UTC-04:00)
Language:

Cosmos 1328 Rocket - Orbit

View from above orbital plane
View from above orbital plane
View from above satellite
View from above satellite

Ground track
Ground track

The orbit data is extracted from the following two-line orbital elements,

1 12988U 81117B   15088.59999038  .00000612  00000-0  69936-4 0  9996
2 12988 082.5224 113.5414 0018432 010.4281 106.6570 14.84357527799552
Epoch (UTC): 29 March 2015 14:23:59
Eccentricity: 0.0018432
inclination: 82.5224°
perigee height: 603 km
apogee height: 628 km
right ascension of ascending node: 113.5414°
argument of perigee: 10.4281°
revolutions per day: 14.84357527
mean anomaly at epoch: 106.6570°
orbit number at epoch: 79955

The dashed part of the orbit path shows where the satellite is in the earth's shadow,  

DLR